Regional Weather Roundup
Issued by NWS Green Bay, WI

Home | Current Version | Previous Version | Graphics & Text | Print | Product List | Glossary Off
Versions: 1 2 3 4 5 6 7 8 9 10 11 12 13 14 15 16 17 18 19 20 21 22 23 24 25 26 27 28 29 30 31 32 33 34 35 36 37 38 39 40 41 42 43 44 45 46 47 48 49 50

000
ASUS43 KGRB 310411
RWRGRB

NORTH-CENTRAL AND NORTHEAST WISCONSIN REGIONAL WEATHER ROUNDUP
NATIONAL WEATHER SERVICE GREEN BAY WI
1100 PM CDT SUN AUG 30 2015

WIZ005-009-010>012-018-019-310500-
NORTH CENTRAL WISCONSIN

CITY           SKY/WX    TMP DP  RH WIND       PRES   REMARKS
IRONWOOD       CLEAR     70  64  83 SW10      29.89S
MANITOWISH WTR CLEAR     65  64  99 SW7       29.97S
ARBOR VITAE    CLEAR     64  63  94 SW6       29.98S
EAGLE RIVER    CLEAR     64  63  96 SW6       29.97S
LAND O LAKES   CLEAR     65  62  91 CALM      29.98S
RHINELANDER    CLEAR     65  62  90 SW8       30.00R
PHILLIPS       CLEAR     63  63  99 S5        29.97F
ANTIGO         CLEAR     63  62  97 W3        30.00F
TOMAHAWK       CLEAR     61  59  95 CALM      30.00S FOG
MERRILL        CLEAR     60  60 100 SW3       30.00S
$$

WIZ013-073-310500-
NORTHEAST WISCONSIN

CITY           SKY/WX    TMP DP  RH WIND       PRES   REMARKS
IRON MOUNTAIN  CLEAR     65  62  90 S5        29.95S
MARINETTE      CLEAR     66  61  82 SW6       29.96S
OCONTO         CLEAR     64  64 100 SW3       29.97S
$$

WIZ017-030-035>037-045-310500-
CENTRAL WISCONSIN

CITY           SKY/WX    TMP DP  RH WIND       PRES   REMARKS
MEDFORD        CLEAR     61  60  99 S3        30.00S
WAUSAU         CLEAR     65  62  90 CALM      29.98F
MOSINEE        CLEAR     61  61 100 CALM      30.01S
MARSHFIELD     FOG       63  60  90 SW5       30.00S VSB 1/4
WISC RAPIDS    CLEAR     63  60  90 SW3       30.01S FOG
STEVENS POINT  CLEAR     62  62  97 SW3       30.00F
WAUPACA          N/A     62  62  97 CALM      30.00S FOG
SHAWANO        CLEAR     67  64  90 SW5       29.98F
CLINTONVILLE   CLEAR     63  61  94 S3        29.99S
WAUTOMA        FOG       63  63 100 CALM      30.00F VSB 1/2
$$

WIZ038-039-048-051-310500-
FOX VALLEY

CITY           SKY/WX    TMP DP  RH WIND       PRES   REMARKS
NWS GREEN BAY  CLEAR     63  62  97 S3        29.99S
APPLETON       CLEAR     63  63 100 S6        29.99S
OSHKOSH        CLEAR     60  58  92 S6        30.00S
FOND DU LAC    CLEAR     62  60  93 S5        30.01S
$$

WIZ022-050-052-310500-
EAST CENTRAL WISCONSIN

CITY           SKY/WX    TMP DP  RH WIND       PRES   REMARKS
EPHRAIM        FAIR      61  60  97 CALM      29.97R
STURGEON BAY   CLEAR     64  61  88 SW8       30.00F
MANITOWOC      CLEAR     62  61  96 MISG      30.01S FOG
SHEBOYGAN      CLEAR     60  59  96 S6        30.02S FOG
$$

LMZ563-521-522-541>543-310500-
LAKESHORE

STATION/POSITION TIME  TEMP    WIND        PRES    VSBY  WAVE
                       AIR SEA DIR/SP/G                  HT/PER
                 (UTC) (F)     (DEG/KT/KT) (MB)    (MI)  (FT/S)
SHEBOYGAN LKSHOR 0400   63     190/ 11/ 12 1016.6F
NORTHPORT PIER   0401   63     150/  3/  7 1014.9R
N MID LAKE BUOY  0350   64 65  210/ 16/ 19 1014.5R         3/ 4
S GREEN BAY BUOY 0300   66 63  190/ 10/ 12 1016.5S
CHAMBERS ISLAND  0300   65     190/  6/ 12 1014.6S
$$


USA.gov is the U.S. government's official web portal to all federal, state and local government web resources and services.